• Join FlightAware (Why Join?)
  • Login
  • US Flag 
12:39AM EST


 

Airport Tracker/Info


-or-


 

Live Flight TrackerFlight Track Log ✈ N845AE ✈ 20-Apr-2013 ✈ MMSP / SLP - KDFW

Flight Track Log - Related Links

Times and Time Zones

All times are in EDT time to prevent confusion due to time zone crossing. See the N845AE flight status page for this flight to view local times or setup timezone preferences in your user account.

Time Position Orientation Groundspeed Altitude Reporting Facility
EDT Latitude Longitude Course Direction KTS MPH feet Rate Location/Type
04:39PM 22.5463 -100.8629 12° North  Level FlightAware Approximate
04:40PM 22.6436 -100.8402 12° North  Level FlightAware Approximate
04:41PM 22.7409 -100.8175 12° North  Level FlightAware Approximate
04:42PM 22.8382 -100.7947 12° North  Level FlightAware Approximate
04:43PM 22.9356 -100.7719 12° North  Level FlightAware Approximate
04:44PM 23.0329 -100.7491 12° North  Level FlightAware Approximate
04:45PM 23.1302 -100.7262 12° North  Level FlightAware Approximate
04:46PM 23.2275 -100.7033 12° North  Level FlightAware Approximate
04:47PM 23.3248 -100.6804 12° North  Level FlightAware Approximate
04:48PM 23.4221 -100.6574 12° North  Level FlightAware Approximate
04:49PM 23.5194 -100.6344 12° North  Level FlightAware Approximate
04:50PM 23.6167 -100.6114 12° North  Level FlightAware Approximate
04:51PM 23.7139 -100.5883 12° North  Level FlightAware Approximate
04:52PM 23.8112 -100.5652 12° North  Level FlightAware Approximate
04:53PM 23.9085 -100.5421 12° North  Level FlightAware Approximate
04:54PM 24.0058 -100.5189 12° North  Level FlightAware Approximate
04:55PM 24.1031 -100.4957 12° North  Level FlightAware Approximate
04:56PM 24.2003 -100.4725 12° North  Level FlightAware Approximate
04:57PM 24.2976 -100.4492 12° North  Level FlightAware Approximate
04:58PM 24.3949 -100.4259 12° North  Level FlightAware Approximate
04:59PM 24.4907 -100.4032 12° North  Level FlightAware Approximate
05:00PM 24.5881 -100.3803 12° North  Level FlightAware Approximate
05:01PM 24.6854 -100.3573 12° North  Level FlightAware Approximate
05:02PM 24.7828 -100.3344 12° North  Level FlightAware Approximate
05:03PM 24.8801 -100.3113 12° North  Level FlightAware Approximate
05:04PM 24.9774 -100.2883 12° North  Level FlightAware Approximate
05:05PM 25.0748 -100.2652 12° North  Level FlightAware Approximate
05:06PM 25.1721 -100.2421 12° North  Level FlightAware Approximate
05:07PM 25.2694 -100.2189 12° North  Level FlightAware Approximate
05:08PM 25.3668 -100.1957 12° North  Level FlightAware Approximate
05:09PM 25.4641 -100.1725 12° North  Level FlightAware Approximate
05:10PM 25.5614 -100.1492 12° North  Level FlightAware Approximate
05:11PM 25.6587 -100.1259 12° North  Level FlightAware Approximate
05:12PM 25.7560 -100.1026 12° North  Level FlightAware Approximate
05:13PM 25.8518 -100.0725 16° North  Level FlightAware Approximate
05:14PM 25.9474 -100.0416 16° North  Level FlightAware Approximate
05:15PM 26.0430 -100.0107 16° North  Level FlightAware Approximate
05:16PM 26.1386 -99.9796 16° North  Level FlightAware Approximate
05:16PM 26.2975 -99.9094 16° North 432 497 37,000  Level Houston Center
05:17PM 26.2341 -99.9486 16° North  Level FlightAware Approximate
05:17PM 26.4117 -99.8753 15° North 426 490 37,000  Level Houston Center
05:18PM 26.3297 -99.9175 16° North  Level FlightAware Approximate
05:18PM 26.5253 -99.8411 15° North 423 487 37,000  Level Houston Center
05:19PM 26.4253 -99.8866 16° North  Level FlightAware Approximate
05:19PM 26.6389 -99.8078 15° North 421 484 37,000  Level Houston Center
05:20PM 26.5210 -99.8559 16° North  Level FlightAware Approximate
05:20PM 26.7508 -99.7719 16° North 418 481 37,000  Level Houston Center
05:21PM 26.6167 -99.8253 16° North  Level FlightAware Approximate
05:21PM 26.8625 -99.7394 15° North 415 478 37,000  Level Houston Center
05:22PM 26.9747 -99.7058 15° North 416 479 37,000  Level Houston Center
05:23PM 27.1086 -99.6650 15° North 414 476 37,000  Level Houston Center
05:24PM 27.2183 -99.6311 15° North 409 471 37,000  Level Houston Center
05:25PM 27.3292 -99.5831 21° North 422 486 37,000  Level Houston Center
05:26PM 27.4394 -99.5300 23° Northeast 427 491 37,000  Level Houston Center
05:27PM 27.5492 -99.4781 23° Northeast 425 489 37,000  Level Houston Center
05:28PM 27.6581 -99.4269 23° Northeast 421 484 37,000  Level Houston Center
05:30PM 27.7672 -99.3744 23° Northeast 422 486 37,000  Level Houston Center
05:31PM 27.8753 -99.3225 23° Northeast 421 484 37,000  Level Houston Center
05:32PM 28.0033 -99.2603 23° Northeast 415 478 37,000  Level Houston Center
05:33PM 28.1106 -99.2086 23° Northeast 417 480 37,000  Level Houston Center
05:34PM 28.2158 -99.1575 23° Northeast 412 474 37,000  Level Houston Center
05:35PM 28.3222 -99.1067 23° Northeast 413 475 37,000  Level Houston Center
05:36PM 28.4272 -99.0561 23° Northeast 410 472 37,000  Level Houston Center
05:37PM 28.5314 -99.0047 23° Northeast 411 473 37,000 -120 Level Houston Center
05:38PM 28.6361 -98.9556 22° Northeast 407 468 36,800 -360 Descending Houston Center
05:39PM 28.7667 -98.8931 23° Northeast 418 481 36,300 -540 Descending Houston Center
05:40PM 28.8750 -98.8394 23° Northeast 424 488 35,800 -540 Descending Houston Center
05:41PM 28.9939 -98.7811 23° Northeast 429 494 35,300 -420 Descending Houston Center
05:42PM 29.1053 -98.7269 23° Northeast 435 501 35,000 -180 Descending Houston Center
05:43PM 29.2156 -98.6728 23° Northeast 431 496 35,000  Level Houston Center
05:44PM 29.3336 -98.6139 24° Northeast 429 494 35,000  Level Houston Center
05:45PM 29.4422 -98.5600 23° Northeast 425 489 35,000  Level Houston Center
05:46PM 29.5381 -98.5131 23° Northeast 428 493 35,000  Level Houston Center
05:47PM 29.6639 -98.4600 20° North 435 501 35,000  Level Houston Center
05:48PM 29.7789 -98.4406 North 380 437 35,000  Level Houston Center
05:49PM 29.8858 -98.4258 North 387 445 35,000  Level Houston Center
05:50PM 30.0078 -98.4078 North 393 452 35,000  Level Houston Center
05:51PM 30.1169 -98.3908 North 394 453 35,000  Level Houston Center
05:52PM 30.2281 -98.3739 North 399 459 35,000  Level Houston Center
05:53PM 30.3342 -98.3597 North 400 460 35,000  Level Houston Center
05:54PM 30.4458 -98.3428 North 401 461 35,000  Level Houston Center
05:55PM 30.5572 -98.3269 North 399 459 35,000  Level Houston Center
05:56PM 30.6703 -98.3100 North 401 461 35,000  Level Houston Center
05:57PM 30.7822 -98.2931 North 401 461 35,000  Level Houston Center
05:58PM 30.9142 -98.2733 North 404 465 35,000  Level Houston Center
05:59PM 31.0267 -98.2572 North 403 464 35,000 -60 Level Houston Center
06:00PM 31.1361 -98.2597 359° North 391 450 34,900 -300 Descending Houston Center
06:02PM 31.2433 -98.3197 334° Northwest 364 419 34,400 -480 Descending Fort Worth Center
06:03PM 31.3369 -98.3742 334° Northwest 364 419 33,900 -540 Descending Fort Worth Center
06:04PM 31.4347 -98.4261 336° Northwest 369 425 33,400 -480 Descending Fort Worth Center
06:05PM 31.5283 -98.4492 348° North 376 433 33,000 -480 Descending Fort Worth Center
06:06PM 31.6436 -98.4017 19° North 418 481 32,500 -480 Descending Fort Worth Center
06:07PM 31.7447 -98.2978 41° Northeast 454 522 32,100 -1,200 Descending Fort Worth Center
06:08PM 31.8392 -98.1911 44° Northeast 467 537 30,100 -2,640 Descending Fort Worth Center
06:09PM 31.9047 -98.0497 61° Northeast 478 550 26,900 -3,240 Descending Fort Worth Center
06:10PM 31.9722 -97.8983 62° Northeast 472 543 23,700 -2,400 Descending Fort Worth Center
06:11PM 32.0414 -97.8031 49° Northeast 441 507 22,100 -960 Descending Fort Worth Center
06:12PM 32.1208 -97.8303 344° North 269 310 21,800 -1,320 Descending Fort Worth Center
06:13PM 32.1833 -97.8478 347° North 246 283 19,500 -3,240 Descending Fort Worth Center
06:14PM 32.2631 -97.7500 46° Northeast 303 349 15,400 -3,000 Descending Fort Worth Center
06:15PM 32.3342 -97.6667 45° Northeast 328 377 13,600 -2,040 Descending Fort Worth Center
06:16PM 32.4011 -97.5856 46° Northeast 343 395 11,400 -1,320 Descending Fort Worth Center
06:17PM 32.4658 -97.5119 44° Northeast 330 380 11,000 -240 Descending Fort Worth Center
06:18PM 32.5264 -97.4381 46° Northeast 307 353 11,000  Level Fort Worth Center
06:19PM 32.5869 -97.3642 46° Northeast 307 353 11,000  Level Fort Worth Center
06:20PM 32.6497 -97.2875 46° Northeast 307 353 11,000  Level Fort Worth Center
06:21PM 32.7081 -97.2158 46° Northeast 301 346 11,000  Level Fort Worth Center
06:22PM 32.7706 -97.1664 34° Northeast 283 326 11,000 -600 Level Fort Worth Center
06:23PM 32.8372 -97.1661 360° North 251 289 9,900 -1,500 Descending Fort Worth Center
06:24PM 32.9103 -97.1658 360° North 243 280 8,100 -1,620 Descending Fort Worth Center
06:25PM 32.9772 -97.1608 North 256 295 6,700 -1,500 Descending Fort Worth Center
06:26PM 33.0481 -97.1483 North 239 275 5,200 -1,320 Descending Fort Worth Center
06:26PM 33.0667 -97.1167 55° Northeast 232 267 4,600 -960 Descending Dallas / Fort Worth TRACON
06:27PM 33.0333 -97.0667 128° Southeast 172 198 3,700 -900 Descending Dallas / Fort Worth TRACON